User: anonymous   Login
Location: Unspecified
(0.0000°N, 0.0000°E)
Time: 04:59:12
(UTC+01:00)
Language:

ARIANE 5 R/B - Orbit

View from above orbital plane
View from above orbital plane
View from above satellite
View from above satellite

Ground track
Ground track

The orbit data is extracted from the following two-line orbital elements,

1 28379U 04027B   15086.84861495 -.00000196  00000-0  26922-2 0  9997
2 28379 006.6264 246.1408 7289410 249.5601 015.0357 02.07923994 81238
Epoch (UTC): 27 March 2015 20:22:00
Eccentricity: 0.7289410
inclination: 6.6264°
perigee height: 650 km
apogee height: 38452 km
right ascension of ascending node: 246.1408°
argument of perigee: 249.5601°
revolutions per day: 2.07923994
mean anomaly at epoch: 15.0357°
orbit number at epoch: 8123

The dashed part of the orbit path shows where the satellite is in the earth's shadow,  

DLR